Date String (YYYY-MM-DD hh:mm:ss) UTC,Instrument flags,absolute air pressure of the measurement (hPa),sample flow rate (lpm),inlet stack bypass flow (lpm),air temperature of the measurement (°C),ambient temperature measured by the external sensor (°C),aerosol sample conditioner tube jacket temperature (°C),OPC LED temperature (°C),internal box temperature (°C),relative humidity of the measurement (%),span deviation,mass concentration of particles derived from Lorenz-Mie calculation of OPC scattering (μg/m³),mass concentration of particles derived from Lorenz-Mie calculation of OPC scattering (μg/m³),mass concentration of particles derived from Lorenz-Mie calculation of OPC scattering (μg/m³)
DateTimeUTC,F1_M11,P_M11,Q1_M11,Q2_M11,T1_M11,T2_M11,T3_M11,T4_M11,T5_M11,U1_M11,ZSPAN_M11,X0_M11,X2_M11,X1_M11
2024-05-22 16:00:00,SystemResetWarning,0827.4,4.99,000.00,024.7,024.0,000.0,032.9,026.5,010.3,0000.0,0005.73,0002.05,0001.51
2024-05-22 16:01:00,SystemResetWarning,0827.4,5.00,000.00,024.7,024.0,000.0,032.9,026.5,010.5,0000.0,0006.10,0002.02,0001.50
2024-05-22 16:02:00,SystemResetWarning,0827.4,4.99,000.00,024.7,024.1,000.0,032.9,026.5,010.4,0000.0,0007.25,0001.97,0001.50
2024-05-22 16:03:00,SystemResetWarning,0827.4,5.00,000.00,024.7,024.1,000.0,032.9,026.5,010.0,0000.0,0007.09,0001.90,0001.48
2024-05-22 16:04:00,SystemResetWarning,0827.3,5.01,000.00,024.8,024.1,000.0,032.9,026.5,010.4,0000.0,0007.13,0001.89,0001.48
2024-05-22 16:05:00,SystemResetWarning,0827.4,5.00,000.00,024.8,024.1,000.0,032.9,026.6,009.7,0000.0,0007.37,0001.92,0001.48
2024-05-22 16:06:00,SystemResetWarning,0827.4,4.99,000.00,024.8,024.1,000.0,032.9,026.6,009.5,0000.0,0007.58,0001.90,0001.46
2024-05-22 16:07:00,SystemResetWarning,0827.3,5.00,000.00,024.8,024.1,000.0,033.0,026.6,010.1,0000.0,0007.53,0001.91,0001.46
2024-05-22 16:08:00,SystemResetWarning,0827.2,4.99,000.00,024.8,024.1,000.0,033.0,026.6,010.0,0000.0,0007.92,0001.88,0001.46
2024-05-22 16:09:00,SystemResetWarning,0827.3,4.99,000.00,024.8,024.1,000.0,033.0,026.6,010.6,0000.0,0007.87,0001.90,0001.46
2024-05-22 16:10:00,SystemResetWarning,0827.2,5.00,000.00,024.8,024.1,000.0,033.0,026.6,010.7,0000.0,0007.86,0001.88,0001.44
2024-05-22 16:11:00,SystemResetWarning,0827.2,5.01,000.00,024.8,024.2,000.0,033.0,026.6,010.9,0000.0,0007.31,0001.88,0001.44
2024-05-22 16:12:00,SystemResetWarning,0827.2,5.00,000.00,024.9,024.2,000.0,033.0,026.6,010.9,0000.0,0006.39,0001.84,0001.45
2024-05-22 16:13:00,SystemResetWarning,0827.2,4.99,000.00,024.9,024.2,000.0,033.0,026.6,011.2,0000.0,0004.96,0001.85,0001.44
2024-05-22 16:14:00,SystemResetWarning,0827.2,4.99,000.00,024.9,024.2,000.0,033.0,026.7,010.2,0000.0,0005.11,0001.88,0001.44
2024-05-22 16:15:00,SystemResetWarning,0827.2,5.01,000.00,024.9,024.2,000.0,033.0,026.7,010.0,0000.0,0005.60,0001.94,0001.45
2024-05-22 16:16:00,SystemResetWarning,0827.2,5.00,000.00,024.9,024.2,000.0,033.0,026.7,010.0,0000.0,0005.45,0001.94,0001.44
2024-05-22 16:17:00,SystemResetWarning,0827.2,5.01,000.00,024.9,024.2,000.0,033.1,026.7,009.8,0000.0,0006.34,0001.94,0001.45
2024-05-22 16:18:00,SystemResetWarning,0827.2,4.99,000.00,024.9,024.2,000.0,033.1,026.7,009.9,0000.0,0007.77,0001.98,0001.46
2024-05-22 16:19:00,SystemResetWarning,0827.2,5.00,000.00,024.9,024.3,000.0,033.1,026.7,009.8,0000.0,0007.58,0002.01,0001.47
2024-05-22 16:20:00,SystemResetWarning,0827.2,5.00,000.00,025.0,024.3,000.0,033.1,026.7,010.6,0000.0,0007.34,0002.02,0001.46
2024-05-22 16:21:00,SystemResetWarning,0827.1,4.99,000.00,025.0,024.3,000.0,033.1,026.7,010.4,0000.0,0007.37,0002.01,0001.45
2024-05-22 16:22:00,SystemResetWarning,0827.1,5.00,000.00,025.0,024.3,000.0,033.1,026.7,009.5,0000.0,0007.42,0002.04,0001.47
2024-05-22 16:23:00,SystemResetWarning,0827.1,5.00,000.00,025.0,024.3,000.0,033.1,026.7,009.9,0000.0,0007.57,0002.13,0001.49
2024-05-22 16:24:00,SystemResetWarning,0827.1,5.00,000.00,025.0,024.3,000.0,033.1,026.8,009.6,0000.0,0007.60,0002.14,0001.50
2024-05-22 16:25:00,SystemResetWarning,0827.2,5.00,000.00,025.0,024.3,000.0,033.1,026.7,009.3,0000.0,0007.80,0002.13,0001.51
2024-05-22 16:26:00,SystemResetWarning,0827.1,5.00,000.00,025.0,024.3,000.0,033.2,026.7,009.1,0000.0,0007.90,0002.08,0001.51
2024-05-22 16:27:00,SystemResetWarning,0827.1,5.00,000.00,025.0,024.3,000.0,033.2,026.8,009.4,0000.0,0008.41,0002.08,0001.53
2024-05-22 16:28:00,SystemResetWarning,0827.1,4.99,000.00,025.0,024.3,000.0,033.2,026.8,009.3,0000.0,0008.01,0002.14,0001.55
2024-05-22 16:29:00,SystemResetWarning,0827.0,5.00,000.00,025.0,024.3,000.0,033.2,026.8,009.4,0000.0,0006.54,0002.11,0001.54
2024-05-22 16:30:00,SystemResetWarning,0827.0,5.01,000.00,025.0,024.4,000.0,033.2,026.8,009.9,0000.0,0006.37,0002.13,0001.54
2024-05-22 16:31:00,SystemResetWarning,0827.0,5.00,000.00,025.1,024.4,000.0,033.2,026.8,009.9,0000.0,0006.63,0002.13,0001.55
2024-05-22 16:32:00,SystemResetWarning,0826.9,4.99,000.00,025.1,024.4,000.0,033.2,026.8,010.2,0000.0,0006.57,0002.14,0001.57
2024-05-22 16:33:00,SystemResetWarning,0827.0,4.99,000.00,025.1,024.4,000.0,033.2,026.8,010.0,0000.0,0006.48,0002.11,0001.56
2024-05-22 16:34:00,SystemResetWarning,0827.0,4.99,000.00,025.1,024.4,000.0,033.2,026.8,009.7,0000.0,0006.26,0002.05,0001.55
2024-05-22 16:35:00,SystemResetWarning,0826.9,5.01,000.00,025.1,024.4,000.0,033.2,026.9,009.6,0000.0,0007.07,0002.05,0001.54
2024-05-22 16:36:00,SystemResetWarning,0827.0,5.01,000.00,025.1,024.4,000.0,033.3,026.9,009.2,0000.0,0006.62,0002.05,0001.52
2024-05-22 16:37:00,SystemResetWarning,0827.0,5.01,000.00,025.1,024.4,000.0,033.3,026.9,009.4,0000.0,0007.16,0002.06,0001.51
2024-05-22 16:38:00,SystemResetWarning,0827.0,5.00,000.00,025.1,024.4,000.0,033.3,026.9,008.7,0000.0,0006.90,0002.05,0001.51
2024-05-22 16:39:00,SystemResetWarning,0826.9,4.99,000.00,025.1,024.4,000.0,033.3,026.9,009.5,0000.0,0006.43,0002.00,0001.50
2024-05-22 16:40:00,SystemResetWarning,0826.9,4.99,000.00,025.1,024.5,000.0,033.3,026.9,009.8,0000.0,0006.17,0001.97,0001.49
2024-05-22 16:41:00,SystemResetWarning,0826.9,5.00,000.00,025.2,024.5,000.0,033.3,026.9,009.3,0000.0,0005.96,0001.93,0001.49
2024-05-22 16:42:00,SystemResetWarning,0826.8,4.99,000.00,025.2,024.5,000.0,033.3,026.9,009.2,0000.0,0005.68,0001.91,0001.50
2024-05-22 16:43:00,SystemResetWarning,0826.7,5.00,000.00,025.2,024.5,000.0,033.3,026.9,009.4,0000.0,0006.05,0001.92,0001.49
2024-05-22 16:44:00,SystemResetWarning,0826.7,5.01,000.00,025.2,024.5,000.0,033.3,026.9,009.5,0000.0,0006.15,0001.93,0001.48
2024-05-22 16:45:00,SystemResetWarning,0826.8,5.00,000.00,025.2,024.5,000.0,033.3,027.0,009.8,0000.0,0006.66,0001.95,0001.49
2024-05-22 16:46:00,SystemResetWarning,0826.8,5.00,000.00,025.2,024.5,000.0,033.3,027.0,010.7,0000.0,0006.12,0001.99,0001.50
2024-05-22 16:47:00,SystemResetWarning,0826.8,5.00,000.00,025.2,024.5,000.0,033.4,027.0,011.1,0000.0,0006.15,0002.05,0001.53
2024-05-22 16:48:00,SystemResetWarning,0826.8,5.01,000.00,025.2,024.5,000.0,033.4,027.0,010.5,0000.0,0005.30,0002.04,0001.54
2024-05-22 16:49:00,SystemResetWarning,0826.7,4.99,000.00,025.2,024.6,000.0,033.4,027.0,010.2,0000.0,0004.32,0002.04,0001.54
2024-05-22 16:50:00,SystemResetWarning,0826.6,4.99,000.00,025.3,024.6,000.0,033.4,027.0,011.0,0000.0,0004.45,0002.08,0001.54
2024-05-22 16:51:00,SystemResetWarning,0826.6,5.00,000.00,025.3,024.6,000.0,033.4,027.0,010.2,0000.0,0004.68,0002.13,0001.55
2024-05-22 16:52:00,SystemResetWarning,0826.8,5.00,000.00,025.3,024.6,000.0,033.4,027.0,010.3,0000.0,0004.82,0002.16,0001.54
2024-05-22 16:53:00,SystemResetWarning,0826.8,5.01,000.00,025.3,024.6,000.0,033.4,027.0,009.5,0000.0,0004.93,0002.13,0001.53
2024-05-22 16:54:00,SystemResetWarning,0826.8,5.01,000.00,025.3,024.6,000.0,033.5,027.1,009.2,0000.0,0004.50,0002.08,0001.53
2024-05-22 16:55:00,SystemResetWarning,0826.6,5.00,000.00,025.3,024.6,000.0,033.5,027.1,009.0,0000.0,0004.63,0002.10,0001.53
2024-05-22 16:56:00,SystemResetWarning,0826.6,5.00,000.00,025.3,024.6,000.0,033.5,027.1,009.4,0000.0,0004.24,0002.10,0001.52
2024-05-22 16:57:00,SystemResetWarning,0826.6,4.99,000.00,025.3,024.7,000.0,033.5,027.1,010.3,0000.0,0004.02,0002.04,0001.51
2024-05-22 16:58:00,SystemResetWarning,0826.6,5.00,000.00,025.3,024.7,000.0,033.5,027.1,011.0,0000.0,0003.83,0001.98,0001.50
2024-05-22 16:59:00,SystemResetWarning,0826.6,5.00,000.00,025.4,024.7,000.0,033.5,027.1,010.1,0000.0,0003.75,0001.95,0001.49
